EW3232 Weather Reports


Display with metric or nautical units.
time (UTC)temp
F
wind
direction
speed
MPH
gust
MPH
rain 1hr
in
rain 24hr
in
rain mn
in
humidity
%
barometer
mb
20260831191502 73 17 3.0 5.0 0.00 0.00 0.00 86 1019.9
20260831190017 73 29 0.0 3.0 0.00 0.00 0.00 84 1019.6
20260831184519 74 47 2.0 6.0 0.00 0.00 0.00 84 1019.4
20260831183015 74 46 3.0 6.0 0.00 0.00 0.00 82 1019.3
20260831181542 75 42 5.0 9.0 0.00 0.00 0.00 80 1019.3
20260831180059 76 45 4.0 9.0 0.00 0.00 0.00 79 1019.2
20260831174616 76 27 5.0 10.0 0.00 0.00 0.00 78 1019.3
20260831173103 77 82 4.0 9.0 0.00 0.00 0.00 77 1019.4
20260831171613 77 78 7.0 10.0 0.00 0.00 0.00 75 1019.4
20260831170015 77 56 6.0 11.0 0.00 0.00 0.00 74 1019.3
20260831164532 78 77 6.0 12.0 0.00 0.00 0.00 71 1019.4
20260831163030 79 87 6.0 11.0 0.00 0.00 0.00 70 1019.3
20260831161538 78 67 5.0 12.0 0.00 0.00 0.00 72 1019.5
20260831160030 78 55 8.0 15.0 0.00 0.00 0.00 72 1019.5
20260831154527 79 111 7.0 13.0 0.00 0.00 0.00 70 1019.6
20260831153057 80 73 9.0 13.0 0.00 0.00 0.00 68 1019.7
20260831151643 80 83 5.0 13.0 0.00 0.00 0.00 64 1019.6
20260831150145 80 111 4.0 10.0 0.00 0.00 0.00 65 1019.6
20260831144529 79 133 4.0 10.0 0.00 0.00 0.00 67 1019.6
20260831143035 80 102 5.0 12.0 0.00 0.00 0.00 66 1019.8
20260831141508 80 161 5.0 11.0 0.00 0.00 0.00 67 1019.9
20260831134510 80 79 11.0 17.0 0.00 0.00 0.00 66 1020.1
20260831133014 80 67 8.0 14.0 0.00 0.00 0.00 66 1020.1
20260831131534 81 61 3.0 17.0 0.00 0.00 0.00 65 1020.1
20260831130045 80 111 7.0 16.0 0.00 0.00 0.00 66 1020.1
20260831124546 80 102 7.0 11.0 0.00 0.00 0.00 67 1020.3
20260831123049 79 54 9.0 13.0 0.00 0.00 0.00 68 1020.4
20260831121557 81 19 7.0 17.0 0.00 0.00 0.00 64 1020.4
20260831120039 82 77 6.0 11.0 0.00 0.00 0.00 63 1020.4
20260831114553 82 44 5.0 12.0 0.00 0.00 0.00 62 1020.5
20260831113053 82 129 9.0 15.0 0.00 0.00 0.00 60 1020.4
20260831111505 82 342 4.0 16.0 0.00 0.00 0.00 54 1020.3
20260831110023 81 61 6.0 14.0 0.00 0.00 0.00 53 1020.4
20260831104621 81 52 7.0 13.0 0.00 0.00 0.00 55 1020.5
20260831103136 81 57 2.0 15.0 0.00 0.00 0.00 55 1020.6
20260831101659 80 83 4.0 13.0 0.00 0.00 0.00 56 1020.5
20260831100007 80 347 6.0 12.0 0.00 0.00 0.00 56 1020.4
20260831094526 79 14 1.0 12.0 0.00 0.00 0.00 55 1020.4
20260831093017 79 11 4.0 11.0 0.00 0.00 0.00 56 1020.3
20260831091549 78 94 5.0 11.0 0.00 0.00 0.00 56 1020.2
20260831090028 78 115 4.0 13.0 0.00 0.00 0.00 56 1020.1
20260831084541 78 65 4.0 10.0 0.00 0.00 0.00 54 1020.0
20260831083135 78 23 2.0 7.0 0.00 0.00 0.00 53 1019.8
20260831081636 77 67 3.0 6.0 0.00 0.00 0.00 55 1019.9
20260831080129 76 85 3.0 7.0 0.00 0.00 0.00 58 1019.8
20260831074641 75 112 2.0 8.0 0.00 0.00 0.00 62 1019.8
20260831073211 75 109 1.0 3.0 0.00 0.00 0.00 62 1019.7
20260831071539 74 308 0.0 2.0 0.00 0.00 0.00 64 1019.6
20260831070032 71 308 0.0 2.0 0.00 0.00 0.00 71 1019.5
20260831064607 68 308 0.0 2.0 0.00 0.00 0.00 75 1019.5
20260831063135 66 308 0.0 2.0 0.00 0.00 0.00 78 1019.3
20260831061642 64 288 2.0 4.0 0.00 0.00 0.00 79 1019.1
20260831060156 63 270 3.0 4.0 0.00 0.00 0.00 79 1018.9
20260831054642 62 274 2.0 4.0 0.00 0.00 0.00 80 1018.8
20260831051502 62 265 3.0 6.0 0.00 0.00 0.00 80 1018.6
20260831050035 62 286 1.0 4.0 0.00 0.00 0.00 79 1018.6
20260831044627 63 271 2.0 6.0 0.00 0.00 0.00 80 1018.5
20260831043015 62 265 3.0 6.0 0.00 0.00 0.00 82 1018.5
20260831041516 62 271 2.0 4.0 0.00 0.00 0.00 81 1018.5
20260831040040 62 270 2.0 4.0 0.00 0.00 0.00 80 1018.5
20260831034531 62 260 2.0 4.0 0.00 0.00 0.00 80 1018.3
20260831033019 62 269 4.0 6.0 0.00 0.00 0.00 80 1018.2
20260831031540 62 300 1.0 4.0 0.00 0.00 0.00 79 1018.2
20260831030036 62 269 1.0 4.0 0.00 0.00 0.00 78 1018.1
20260831024522 62 291 0.0 3.0 0.00 0.00 0.00 77 1018.0
20260831023017 63 264 2.0 3.0 0.00 0.00 0.00 76 1018.0
20260831021548 63 253 0.0 2.0 0.00 0.00 0.00 72 1018.1
20260831020035 63 281 3.0 4.0 0.00 0.00 0.00 74 1018.1
20260831014611 63 257 0.0 4.0 0.00 0.00 0.00 71 1018.2
20260831013130 64 256 0.0 3.0 0.00 0.00 0.00 70 1018.2
20260831011645 64 259 2.0 3.0 0.00 0.00 0.00 69 1017.9
20260831010133 64 271 1.0 6.0 0.00 0.00 0.00 70 1017.9
20260831004545 64 285 1.0 3.0 0.00 0.00 0.00 69 1017.9
20260831003038 64 264 1.0 4.0 0.00 0.00 0.00 68 1017.9
20260831001644 65 263 4.0 7.0 0.00 0.00 0.00 66 1017.9
20260831000150 65 277 5.0 7.0 0.00 0.00 0.00 67 1018.0
20260830234548 64 264 2.0 4.0 0.00 0.00 0.00 68 1018.1
20260830233118 65 264 1.0 4.0 0.00 0.00 0.00 68 1018.1
20260830231601 65 276 1.0 3.0 0.00 0.00 0.00 68 1018.2
20260830230100 66 234 0.0 2.0 0.00 0.00 0.00 69 1018.3
20260830224531 66 271 0.0 3.0 0.00 0.00 0.00 71 1018.1
20260830223110 66 202 0.0 2.0 0.00 0.00 0.00 72 1018.2
20260830221530 66 208 1.0 4.0 0.00 0.00 0.00 75 1018.2
20260830220011 67 270 0.0 2.0 0.00 0.00 0.00 76 1018.3
20260830214537 67 266 0.0 2.0 0.00 0.00 0.00 76 1018.2
20260830213112 67 268 2.0 4.0 0.00 0.00 0.00 77 1018.2
20260830211612 67 284 2.0 4.0 0.00 0.00 0.00 77 1018.2
20260830210048 68 273 0.0 2.0 0.00 0.00 0.00 76 1018.3
20260830204618 68 256 3.0 6.0 0.00 0.00 0.00 76 1018.2
20260830203135 68 258 2.0 4.0 0.00 0.00 0.00 74 1018.2
20260830201632 68 274 0.0 6.0 0.00 0.00 0.00 72 1018.0
20260830200120 69 271 2.0 4.0 0.00 0.00 0.00 70 1017.9
20260830194634 70 269 1.0 3.0 0.00 0.00 0.00 69 1017.8
20260830193143 71 266 2.0 4.0 0.00 0.00 0.00 67 1017.7